Location: Владивосток
(43.1151°N, 131.8856°E)
Time: 02:03:12
(UTC+10:00)

BlueWalker 3 - Pass Details

Date: 04 December 2022
Orbit: 499 x 517 km, 53.2° (Epoch: 01 February)

Event Time Altitude Azimuth Distance (km) Brightness Sun altitude
Rises 19:10:09 0° 302° (WNW) 2,628 6.2 -16.3°
Reaches altitude 10° 19:12:49 10° 320° (NW) 1,736 5.0 -16.8°
Maximum altitude 19:15:46 20° 9° (N) 1,225 3.7 -17.3°
Enters shadow 19:16:05 20° 16° (NNE) 1,231 3.6 -17.4°
